Weather Roundup
Issued by NWS Chicago, IL

Home | Current Version | Previous Version | Graphics & Text | Print | Product List | Glossary On
Versions: 1 2 3 4 5 6 7 8 9 10 11 12 13 14 15 16 17 18 19 20 21 22 23 24 25 26 27 28 29 30 31 32 33 34 35 36 37 38 39 40 41 42 43 44 45 46 47 48 49 50
000
NZUS59 KLOT 251406
HRRLOT

CHICAGO AREA WEATHER ROUNDUP
NATIONAL WEATHER SERVICE CHICAGO/ROMEOVILLE IL
900 AM CDT FRI JUL 25 2014

NOTE: "FAIR" INDICATES FEW OR NO CLOUDS BELOW 12,000 FEET WITH NO
SIGNIFICANT WEATHER AND/OR OBSTRUCTIONS TO VISIBILITY.

* THESE STATIONS ARE NOT UNDER NWS QUALITY CONTROL. THEY ALSO MAY NOT
  REPORT WEATHER SUCH AS PRECIPITATION OR FOG.

ILZ005-006-012>014-019>023-251500-
NORTHEAST ILLINOIS

CITY           SKY/WX    TMP DP  RH WIND       PRES   REMARKS
OHARE          CLOUDY    65  52  62 SW8       30.05F
MIDWAY         CLOUDY    66  54  65 S8        30.06F
AURORA         CLOUDY    60  55  83 S7        30.05F
JOLIET*        LGT RAIN  62  56  81 W5        30.07F
WAUKEGAN       CLOUDY    65  52  62 S12       30.02F
DUPAGE AIRPORT LGT RAIN  62  56  80 S8        30.04F
WHEELING       CLOUDY    67  54  63 S8        30.05F
KANKAKEE*      PTSUNNY   69  59  71 S6        30.10F
MORRIS*        CLOUDY    64  60  87 S6        30.06F
LEWIS AIRPORT* DRIZZLE   62  56  78 SW5       30.06F
NORTHERLY IS   NOT AVBL
$$

WIZ051-052-058>065-066-070>072-251500-
SOUTHEAST WISCONSIN

CITY           SKY/WX    TMP DP  RH WIND       PRES   REMARKS
MILWAUKEE      CLOUDY    64  51  62 SW10      30.02F
KENOSHA*       CLOUDY    64  53  67 SW10      30.02F
RACINE*        CLOUDY    64  52  64 SW8       30.04F
BURLINGTON     CLOUDY    61  53  75 S7        30.01F
WAUKESHA       MOSUNNY   63  52  67 S3        30.03F
WEST BEND      CLOUDY    64  52  63 SW6       30.01F
$$

INZ001>003-010>013-019-020-251500-
NORTHWEST INDIANA

CITY           SKY/WX    TMP DP  RH WIND       PRES   REMARKS
GARY*          CLOUDY    64  55  72 SW5       30.10F
MICHIGAN CITY* NOT AVBL
RENSSELAER*    NOT AVBL
VALPARAISO     CLOUDY    62  55  77 SW7       30.10F
$$

LMZ740>746-251500-
SOUTHERN LAKE MICHIGAN

STATION/POSITION TIME  SKY/WX   TEMP WIND        PRES    VSBY
                                AIR  DIR/SP/G
                 (UTC)          (F)  (DEG/KT/KT) (MB)    (MI)
HARRISON CRIB    1400            65  190/ 14/ 17   N/A
BURNHAM HARBOR   NOT AVBL
CALUMET HARBOR   1400            63  200/  7/  9 1017.0F
BURNS HARBOR     NOT AVBL
MICHIGAN CITY    1400            63  180/  8/ 10   N/A
$$

ABBREVIATIONS USED IN REMARKS
   TC - TEMPERATURE IN CELSIUS
  WCI - WIND CHILL INDEX
   HX - HEAT INDEX
  VSB - VISIBILITY
$$


USA.gov is the U.S. government's official web portal to all federal, state and local government web resources and services.